Air Force Academy, CO

1:51 PM MDT on July 26, 2017 (GMT -0600)
Usaf Academy

Weather History for KAFF - May, 2013

Change the Weather History Date:

Thursday, May 30, 2013

  Actual Average Record
Temperature  
Mean Temperature 57 °F -  
Max Temperature 69 °F 69 °F 93 °F (2000)
Min Temperature 45 °F 43 °F 35 °F (2007)
Degree Days  
Heating Degree Days 8    
Growing Degree Days 7 (Base 50)    
Moisture  
Dew Point 14 °F    
Average Humidity 17    
Maximum Humidity 46    
Minimum Humidity 7    
Precipitation  
Precipitation 0.08 in - - ()
Sea Level Pressure  
Sea Level Pressure 29.74 in    
Wind  
Wind Speed 15 mph (WNW)    
Max Wind Speed 31 mph    
Max Gust Speed 51 mph    
Visibility 10 miles    
Events      
Averages and records for this station are not official NWS values.
T = Trace of Precipitation, MM = Missing Value Source: NWS Daily Summary

Daily Weather History Graph

Daily Weather History Graph

Search for Another Location

Airport or City:

Trip Planner

Search our weather history database for the weather conditions in past years. The results will help you decide how hot, cold, wet, or windy it might be!

Date:

Astronomy

May. 30, 2013 Rise Set
Actual Time 5:36 AM MDT 8:17 PM MDT
Civil Twilight 5:04 AM MDT 8:49 PM MDT
Nautical Twilight 4:25 AM MDT 9:28 PM MDT
Astronomical Twilight 3:41 AM MDT 10:12 PM MDT
Moon 12:22 AM MDT (5/30) 11:45 AM MDT (5/30)
Length of Visible Light 15h 44m
Length of Day
14h 41m
Waning Gibbous, 61% of the Moon is Illuminated
May 30
Waning Gibbous
May 31
Last Quarter
Jun 8
New
Jun 16
First Quarter
Jun 23
Full

Hourly Weather History & Observations

Time (MDT) Temp. Windchill Dew Point Humidity Pressure Visibility Wind Dir Wind Speed Gust Speed Precip Events Conditions
12:58 AM 49.3 °F - 27.1 °F 42% 29.61 in 10.0 mi ENE 2.3 mph - N/A   Clear
1:58 AM 49.5 °F - 22.8 °F 35% 29.58 in 10.0 mi North 5.8 mph - N/A   Clear
2:58 AM 50.4 °F - 23.9 °F 36% 29.59 in 10.0 mi NE 6.9 mph - N/A   Mostly Cloudy
3:58 AM 52.0 °F - 23.0 °F 32% 29.58 in 10.0 mi WNW 6.9 mph - N/A   Clear
4:58 AM 47.3 °F - 24.8 °F 41% 29.60 in 10.0 mi NW 5.8 mph - N/A   Partly Cloudy
5:58 AM 45.5 °F 44.2 °F 25.9 °F 46% 29.62 in 10.0 mi WNW 3.5 mph - N/A   Clear
6:58 AM 51.6 °F - 25.5 °F 36% 29.61 in 10.0 mi NNE 10.4 mph - N/A   Clear
7:58 AM 55.6 °F - 23.2 °F 29% 29.61 in 10.0 mi Variable 4.6 mph 27.6 mph N/A   Clear
8:24 AM 57.2 °F - 23.0 °F 27% 29.79 in 10.0 mi NW 13.8 mph 29.9 mph N/A   Clear
8:25 AM 57.2 °F - 23.0 °F 27% 29.79 in 10.0 mi West 12.7 mph 29.9 mph N/A   Clear
8:26 AM 57.2 °F - 23.0 °F 27% 29.79 in 10.0 mi West 12.7 mph 29.9 mph N/A   Clear
8:34 AM 57.2 °F - 23.0 °F 27% 29.79 in 10.0 mi NW 12.7 mph 20.7 mph N/A   Clear
8:57 AM 59.0 °F - 23.0 °F 25% 29.79 in 10.0 mi West 18.4 mph 25.3 mph N/A   Partly Cloudy
8:58 AM 59.5 °F - 23.2 °F 25% 29.60 in 10.0 mi WSW 19.6 mph 26.5 mph N/A   Partly Cloudy
9:01 AM 60.8 °F - 23.0 °F 23% 29.79 in 10.0 mi West 12.7 mph 26.5 mph N/A   Partly Cloudy
9:53 AM 60.8 °F - 19.4 °F 20% 29.79 in 10.0 mi WNW 21.9 mph 39.1 mph N/A   Clear
9:58 AM 61.5 °F - 19.2 °F 20% 29.61 in 10.0 mi NW 18.4 mph 39.1 mph N/A   Clear
10:03 AM 62.6 °F - 19.4 °F 19% 29.78 in 10.0 mi NNW 18.4 mph 33.4 mph N/A   Clear
10:31 AM 62.6 °F - 17.6 °F 18% 29.78 in 10.0 mi WNW 11.5 mph 32.2 mph N/A   Clear
10:34 AM 62.6 °F - 17.6 °F 18% 29.78 in 10.0 mi WNW 13.8 mph 32.2 mph N/A   Partly Cloudy
10:58 AM 63.0 °F - 15.4 °F 16% 29.60 in 10.0 mi NW 20.7 mph 35.7 mph N/A   Clear
11:09 AM 64.4 °F - 14.0 °F 14% 29.78 in 10.0 mi West 24.2 mph 36.8 mph N/A   Partly Cloudy
11:14 AM 64.4 °F - 15.8 °F 15% 29.78 in 10.0 mi NW 17.3 mph 36.8 mph N/A   Partly Cloudy
11:15 AM 64.4 °F - 15.8 °F 15% 29.78 in 10.0 mi NW 20.7 mph 36.8 mph N/A   Partly Cloudy
11:16 AM 64.4 °F - 15.8 °F 15% 29.78 in 10.0 mi West 20.7 mph 36.8 mph N/A   Partly Cloudy
11:17 AM 64.4 °F - 15.8 °F 15% 29.78 in 10.0 mi West 23.0 mph 36.8 mph N/A   Partly Cloudy
11:58 AM 65.5 °F - 8.6 °F 11% 29.58 in 10.0 mi NW 26.5 mph 39.1 mph N/A   Partly Cloudy
12:05 PM 66.2 °F - 10.4 °F 11% 29.79 in 10.0 mi West 19.6 mph 38.0 mph N/A   Partly Cloudy
12:13 PM 66.2 °F - 10.4 °F 11% 29.79 in 10.0 mi WNW 21.9 mph 31.1 mph N/A   Partly Cloudy
12:14 PM 66.2 °F - 10.4 °F 11% 29.79 in 10.0 mi WNW 23.0 mph 31.1 mph N/A   Partly Cloudy
12:17 PM 66.2 °F - 8.6 °F 11% 29.78 in 10.0 mi NW 27.6 mph 39.1 mph N/A   Partly Cloudy
12:32 PM 66.2 °F - 5.0 °F 9% 29.78 in 10.0 mi WNW 20.7 mph 38.0 mph N/A   Partly Cloudy
12:39 PM 66.2 °F - 5.0 °F 9% 29.78 in 10.0 mi WNW 31.1 mph 42.6 mph N/A   Squalls
12:58 PM 66.9 °F - 2.1 °F 8% 29.57 in 10.0 mi West 25.3 mph 49.5 mph 0.01 in   Partly Cloudy
1:37 PM 68.0 °F - 8.6 °F 10% 29.78 in 10.0 mi WNW 28.8 mph 41.4 mph N/A   Squalls
1:58 PM 67.6 °F - 5.0 °F 9% 29.57 in 10.0 mi WNW 23.0 mph 50.6 mph N/A   Partly Cloudy
2:03 PM 68.0 °F - 5.0 °F 8% 29.79 in 10.0 mi West 23.0 mph 46.0 mph N/A   Partly Cloudy
2:12 PM 68.0 °F - 5.0 °F 8% 29.79 in 10.0 mi NW 23.0 mph 33.4 mph N/A   Partly Cloudy
2:24 PM 68.0 °F - 6.8 °F 9% 29.79 in 10.0 mi West 23.0 mph 41.4 mph N/A   Clear
2:25 PM 68.0 °F - 6.8 °F 9% 29.79 in 10.0 mi West 24.2 mph 41.4 mph N/A   Clear
2:58 PM 68.4 °F - 2.1 °F 7% 29.60 in 10.0 mi WNW 28.8 mph 49.5 mph 0.02 in   Partly Cloudy
3:06 PM 68.0 °F - 3.2 °F 8% 29.80 in 10.0 mi WNW 27.6 mph 47.2 mph N/A   Squalls
3:36 PM 69.8 °F - 10.4 °F 10% 29.79 in 10.0 mi NW 23.0 mph 36.8 mph N/A   Clear
3:43 PM 69.8 °F - 10.4 °F 10% 29.79 in 10.0 mi West 21.9 mph 40.3 mph N/A   Clear
3:49 PM 68.0 °F - 10.4 °F 11% 29.79 in 10.0 mi West 20.7 mph 40.3 mph N/A   Clear
3:50 PM 68.0 °F - 10.4 °F 11% 29.79 in 10.0 mi West 21.9 mph 40.3 mph N/A   Clear
3:56 PM 69.8 °F - 8.6 °F 9% 29.79 in 10.0 mi WNW 24.2 mph 35.7 mph N/A   Clear
3:58 PM 68.9 °F - 8.1 °F 9% 29.57 in 10.0 mi WNW 18.4 mph 35.7 mph 0.05 in   Clear
3:59 PM 69.8 °F - 8.6 °F 9% 29.79 in 10.0 mi WNW 26.5 mph 36.8 mph N/A   Clear
4:11 PM 69.8 °F - 10.4 °F 10% 29.79 in 10.0 mi West 25.3 mph 40.3 mph N/A   Clear
4:12 PM 69.8 °F - 10.4 °F 10% 29.79 in 10.0 mi West 19.6 mph 40.3 mph N/A   Clear
4:20 PM 68.0 °F - 10.4 °F 11% 29.79 in 10.0 mi WNW 26.5 mph 38.0 mph N/A   Clear
4:23 PM 68.0 °F - 10.4 °F 11% 29.79 in 10.0 mi NW 25.3 mph 38.0 mph N/A   Clear
4:29 PM 68.0 °F - 10.4 °F 11% 29.80 in 10.0 mi West 20.7 mph 38.0 mph N/A   Clear
4:38 PM 69.8 °F - 10.4 °F 10% 29.79 in 10.0 mi NW 18.4 mph 35.7 mph N/A   Clear
4:57 PM 69.8 °F - 12.2 °F 11% 29.80 in 10.0 mi NW 16.1 mph 25.3 mph N/A   Clear
4:58 PM 69.3 °F - 11.7 °F 11% 29.60 in 10.0 mi NW 16.1 mph 25.3 mph N/A   Clear
5:26 PM 69.8 °F - 8.6 °F 9% 29.79 in 10.0 mi West 21.9 mph 34.5 mph N/A   Clear
5:32 PM 68.0 °F - 10.4 °F 11% 29.79 in 10.0 mi NW 19.6 mph 34.5 mph N/A   Clear
5:33 PM 68.0 °F - 10.4 °F 11% 29.80 in 10.0 mi NW 18.4 mph 34.5 mph N/A   Clear
5:34 PM 68.0 °F - 10.4 °F 11% 29.80 in 10.0 mi NNW 18.4 mph 34.5 mph N/A   Clear
5:42 PM 68.0 °F - 10.4 °F 11% 29.80 in 10.0 mi WNW 13.8 mph 28.8 mph N/A   Clear
5:43 PM 68.0 °F - 10.4 °F 11% 29.80 in 10.0 mi WNW 15.0 mph 28.8 mph N/A   Clear
5:44 PM 68.0 °F - 10.4 °F 11% 29.80 in 10.0 mi West 17.3 mph 24.2 mph N/A   Clear
5:58 PM 68.2 °F - 10.8 °F 11% 29.61 in 10.0 mi West 18.4 mph 32.2 mph N/A   Clear
6:08 PM 68.0 °F - 10.4 °F 11% 29.81 in 10.0 mi WNW 12.7 mph 24.2 mph N/A   Clear
6:25 PM 68.0 °F - 12.2 °F 12% 29.80 in 10.0 mi West 17.3 mph 25.3 mph N/A   Clear
6:58 PM 67.5 °F - 11.8 °F 12% 29.60 in 10.0 mi WNW 20.7 mph 28.8 mph N/A   Clear
7:04 PM 66.2 °F - 12.2 °F 12% 29.82 in 10.0 mi NNW 15.0 mph 28.8 mph N/A   Clear
7:58 PM 63.7 °F - 16.0 °F 16% 29.65 in 10.0 mi WNW 11.5 mph - N/A   Clear
8:58 PM 57.2 °F - 20.5 °F 24% 29.69 in 10.0 mi North 11.5 mph - N/A   Clear
9:58 PM 50.2 °F - 22.6 °F 34% 29.76 in 10.0 mi North 10.4 mph - N/A   Clear
10:58 PM 46.4 °F 41.5 °F 23.9 °F 41% 29.76 in 10.0 mi NNW 10.4 mph - N/A   Clear
11:58 PM 49.5 °F - 25.3 °F 39% 29.75 in 10.0 mi North 9.2 mph - N/A   Clear